Location: Unspecified
(35.7250°N, 0.0000°E)
Time: 22:02:00
(UTC+00:00)

Explorer 7 - Pass Details

Date: 26 June 2019
Orbit: 485 x 680 km, 50.3° (Epoch: 17 July)

Event Time Altitude Azimuth Distance (km) Brightness Sun altitude
Rises 10:41:36 0° 311° (NW) 2,848 10.2 68.5°
Reaches altitude 10° 10:44:56 10° 338° (NNW) 1,990 9.6 69.1°
Maximum altitude 10:47:19 14° 9° (N) 1,774 9.5 69.5°
Drops below altitude 10° 10:49:46 10° 40° (NE) 2,046 9.9 69.9°
Sets 10:53:17 0° 66° (ENE) 2,991 10.7 70.5°
